MAPLE81 KSAV-KLAL

Flight info

Callsign MAPLE81
Flight time 0h 41m
Altitude 21000
Route ISUZO Q409 PUPYY Q103 CYNTA MMOSS ELITE DOWNO JODON WAND OLENE JKBAL MOLIE SANTR FAZES
Aircraft F35/M-DILORT/L

Departure

Time 2026-04-21 23:18
Airport Savannah Hilton Head International Airport (KSAV)

Arrival

Time 2026-04-22 00:00
Airport Lakeland Linder International Airport (KLAL)
Time Latitude Longitude Altitude Speed Heading
2026-04-21 23:05 32.12639 -81.19258 62 ft 0 kts 180°
2026-04-21 23:13 32.12621 -81.19334 62 ft 16 kts 271°
2026-04-21 23:13 32.12679 -81.19422 63 ft 13 kts 312°
2026-04-21 23:14 32.12690 -81.19546 56 ft 17 kts 271°
2026-04-21 23:14 32.12694 -81.19696 56 ft 20 kts 270°
2026-04-21 23:14 32.12706 -81.19859 51 ft 20 kts 291°
2026-04-21 23:14 32.12750 -81.20011 48 ft 20 kts 278°
2026-04-21 23:15 32.12752 -81.20205 49 ft 26 kts 270°
2026-04-21 23:15 32.12753 -81.20413 48 ft 25 kts 270°
2026-04-21 23:15 32.12757 -81.20615 48 ft 24 kts 273°
2026-04-21 23:15 32.12761 -81.20808 49 ft 23 kts 270°
2026-04-21 23:16 32.12760 -81.20995 49 ft 27 kts 270°
2026-04-21 23:16 32.12760 -81.21221 47 ft 27 kts 270°
2026-04-21 23:16 32.12764 -81.21445 42 ft 28 kts 270°
2026-04-21 23:16 32.12765 -81.21680 36 ft 29 kts 270°
2026-04-21 23:17 32.12783 -81.21851 32 ft 8 kts 319°
2026-04-21 23:17 32.12786 -81.21853 32 ft 0 kts 325°
2026-04-21 23:17 32.12819 -81.21863 32 ft 21 kts 358°
2026-04-21 23:18 32.12874 -81.21799 35 ft 0 kts 90°
2026-04-21 23:18 32.12867 -81.21295 46 ft 170 kts 90°
2026-04-21 23:18 32.12858 -81.19121 203 ft 363 kts 89°
2026-04-21 23:18 32.11954 -81.16202 1686 ft 401 kts 130°
2026-04-21 23:19 32.09753 -81.15039 2608 ft 328 kts 174°
2026-04-21 23:19 32.07459 -81.15024 3077 ft 334 kts 188°
2026-04-21 23:19 32.05257 -81.15748 3396 ft 325 kts 203°
2026-04-21 23:19 32.03154 -81.16822 3861 ft 324 kts 205°
2026-04-21 23:20 32.01111 -81.18055 4470 ft 333 kts 211°
2026-04-21 23:20 31.99173 -81.19519 5166 ft 330 kts 217°
2026-04-21 23:20 31.97335 -81.21223 6040 ft 360 kts 222°
2026-04-21 23:20 31.95459 -81.23310 6831 ft 375 kts 227°
2026-04-21 23:21 31.93723 -81.25598 7561 ft 379 kts 232°
2026-04-21 23:21 31.92127 -81.28073 8326 ft 382 kts 237°
2026-04-21 23:21 31.90460 -81.30561 9093 ft 389 kts 229°
2026-04-21 23:21 31.88577 -81.32890 9865 ft 395 kts 226°
2026-04-21 23:22 31.86583 -81.35150 10669 ft 402 kts 224°
2026-04-21 23:22 31.84487 -81.37339 11398 ft 406 kts 222°
2026-04-21 23:22 31.82260 -81.39412 12147 ft 410 kts 219°
2026-04-21 23:22 31.79954 -81.41422 12921 ft 416 kts 218°
2026-04-21 23:23 31.77603 -81.43439 13692 ft 418 kts 221°
2026-04-21 23:23 31.75418 -81.45691 14442 ft 421 kts 227°
2026-04-21 23:23 31.73301 -81.48073 15150 ft 422 kts 226°
2026-04-21 23:23 31.71073 -81.50366 15886 ft 429 kts 224°
2026-04-21 23:24 31.68837 -81.52691 16632 ft 430 kts 226°
2026-04-21 23:24 31.66607 -81.55071 17403 ft 436 kts 225°
2026-04-21 23:24 31.64330 -81.57440 18174 ft 439 kts 225°
2026-04-21 23:24 31.62036 -81.59842 18956 ft 444 kts 225°
2026-04-21 23:25 31.59741 -81.62256 19663 ft 443 kts 225°
2026-04-21 23:25 31.57423 -81.64676 20370 ft 450 kts 225°
2026-04-21 23:25 31.55088 -81.67123 20767 ft 449 kts 225°
2026-04-21 23:25 31.52753 -81.69563 20935 ft 451 kts 225°
2026-04-21 23:26 31.50408 -81.72010 20994 ft 451 kts 225°
2026-04-21 23:26 31.48071 -81.74451 21032 ft 451 kts 225°
2026-04-21 23:26 31.45727 -81.76897 21037 ft 451 kts 225°
2026-04-21 23:26 31.43340 -81.79282 21010 ft 453 kts 217°
2026-04-21 23:27 31.40567 -81.81086 20993 ft 459 kts 208°
2026-04-21 23:27 31.37644 -81.82604 21011 ft 459 kts 206°
2026-04-21 23:27 31.34724 -81.83995 21021 ft 461 kts 204°
2026-04-21 23:27 31.31658 -81.85118 21011 ft 463 kts 197°
2026-04-21 23:28 31.28508 -81.86091 21002 ft 462 kts 200°
2026-04-21 23:28 31.25440 -81.87217 20997 ft 462 kts 200°
2026-04-21 23:28 31.22395 -81.88247 20993 ft 461 kts 199°
2026-04-21 23:28 31.19313 -81.89291 20993 ft 462 kts 200°
2026-04-21 23:29 31.16237 -81.90371 20998 ft 461 kts 199°
2026-04-21 23:29 31.13154 -81.91419 20999 ft 461 kts 199°
2026-04-21 23:29 31.10072 -81.92476 20999 ft 462 kts 199°
2026-04-21 23:29 31.06995 -81.93538 20997 ft 461 kts 199°
2026-04-21 23:30 31.03911 -81.94591 20995 ft 462 kts 199°
2026-04-21 23:30 31.00834 -81.95647 21026 ft 461 kts 199°
2026-04-21 23:30 30.97759 -81.96702 21023 ft 460 kts 199°
2026-04-21 23:30 30.94690 -81.97750 21025 ft 460 kts 199°
2026-04-21 23:31 30.91611 -81.98803 21061 ft 461 kts 199°
2026-04-21 23:31 30.88542 -81.99853 21056 ft 459 kts 199°
2026-04-21 23:31 30.85467 -82.00903 21061 ft 461 kts 199°
2026-04-21 23:31 30.82395 -82.01951 21089 ft 460 kts 199°
2026-04-21 23:32 30.79327 -82.02997 21091 ft 460 kts 199°
2026-04-21 23:32 30.76252 -82.04046 21089 ft 460 kts 199°
2026-04-21 23:32 30.73180 -82.05092 21086 ft 460 kts 199°
2026-04-21 23:32 30.70108 -82.06137 21098 ft 460 kts 199°
2026-04-21 23:33 30.67042 -82.07180 21101 ft 460 kts 199°
2026-04-21 23:33 30.63962 -82.08207 21097 ft 461 kts 198°
2026-04-21 23:33 30.60885 -82.09196 21085 ft 458 kts 201°
2026-04-21 23:33 30.58887 -82.10010 21087 ft 459 kts 203°
2026-04-21 23:34 30.55832 -82.11224 21069 ft 458 kts 200°
2026-04-21 23:34 30.52824 -82.12321 21074 ft 460 kts 201°
2026-04-21 23:34 30.49798 -82.13502 21077 ft 457 kts 201°
2026-04-21 23:34 30.46766 -82.14659 21081 ft 460 kts 200°
2026-04-21 23:35 30.43749 -82.15850 21073 ft 457 kts 202°
2026-04-21 23:35 30.40701 -82.16942 21068 ft 461 kts 197°
2026-04-21 23:35 30.37599 -82.17877 21066 ft 459 kts 199°
2026-04-21 23:35 30.34541 -82.18935 21076 ft 459 kts 199°
2026-04-21 23:36 30.31461 -82.19940 21077 ft 460 kts 198°
2026-04-21 23:36 30.28378 -82.20938 20401 ft 455 kts 199°
2026-04-21 23:36 30.25335 -82.21958 19685 ft 455 kts 198°
2026-04-21 23:36 30.22299 -82.22929 18983 ft 452 kts 197°
2026-04-21 23:37 30.19263 -82.23837 18234 ft 448 kts 195°
2026-04-21 23:37 30.16203 -82.24426 17426 ft 442 kts 188°
2026-04-21 23:37 30.13176 -82.24844 16661 ft 435 kts 190°
2026-04-21 23:37 30.10197 -82.25426 15922 ft 432 kts 191°
2026-04-21 23:38 30.07242 -82.25940 15201 ft 427 kts 189°
2026-04-21 23:38 30.04320 -82.26429 14564 ft 422 kts 190°
2026-04-21 23:38 30.01421 -82.26955 14272 ft 422 kts 190°
2026-04-21 23:38 29.98517 -82.27460 14141 ft 422 kts 189°
2026-04-21 23:39 29.95617 -82.27960 14089 ft 421 kts 190°
2026-04-21 23:39 29.92714 -82.28474 14066 ft 422 kts 190°
2026-04-21 23:39 29.89815 -82.28979 14053 ft 421 kts 189°
2026-04-21 23:39 29.86915 -82.29483 14056 ft 423 kts 190°
2026-04-21 23:40 29.84011 -82.29992 14053 ft 422 kts 190°
2026-04-21 23:40 29.81101 -82.30451 14039 ft 423 kts 185°
2026-04-21 23:40 29.78156 -82.30548 14049 ft 423 kts 180°
2026-04-21 23:40 29.75210 -82.30465 14062 ft 424 kts 178°
2026-04-21 23:41 29.72268 -82.30205 14044 ft 424 kts 172°
2026-04-21 23:41 29.69372 -82.29582 14044 ft 424 kts 169°
2026-04-21 23:41 29.66460 -82.29014 14049 ft 425 kts 173°
2026-04-21 23:41 29.63541 -82.28541 14049 ft 425 kts 171°
2026-04-21 23:42 29.60619 -82.27978 13729 ft 425 kts 171°
2026-04-21 23:42 29.57738 -82.27453 12943 ft 415 kts 172°
2026-04-21 23:42 29.54907 -82.26956 12393 ft 409 kts 171°
2026-04-21 23:42 29.52088 -82.26433 12147 ft 412 kts 171°
2026-04-21 23:43 29.49270 -82.25922 12077 ft 411 kts 171°
2026-04-21 23:43 29.46458 -82.25453 12040 ft 411 kts 172°
2026-04-21 23:43 29.43640 -82.24924 12023 ft 413 kts 167°
2026-04-21 23:43 29.40871 -82.24140 12024 ft 410 kts 166°
2026-04-21 23:44 29.38090 -82.23448 12023 ft 410 kts 168°
2026-04-21 23:44 29.35299 -82.22785 12023 ft 410 kts 167°
2026-04-21 23:44 29.32520 -82.22062 12032 ft 410 kts 167°
2026-04-21 23:44 29.29744 -82.21372 12036 ft 412 kts 168°
2026-04-21 23:45 29.26941 -82.20683 12033 ft 412 kts 167°
2026-04-21 23:45 29.21380 -82.19287 12031 ft 413 kts 168°
2026-04-21 23:45 29.18569 -82.18640 12015 ft 414 kts 173°
2026-04-21 23:46 29.15766 -82.18482 12013 ft 407 kts 180°
2026-04-21 23:46 29.12917 -82.18564 12022 ft 408 kts 183°
2026-04-21 23:46 29.10068 -82.18742 12020 ft 408 kts 185°
2026-04-21 23:46 29.07264 -82.19192 12010 ft 411 kts 192°
2026-04-21 23:47 29.04473 -82.19861 12014 ft 408 kts 192°
2026-04-21 23:47 29.01671 -82.20381 12007 ft 405 kts 189°
2026-04-21 23:47 28.98847 -82.20909 11937 ft 417 kts 191°
2026-04-21 23:47 28.96053 -82.21491 11269 ft 402 kts 191°
2026-04-21 23:48 28.93298 -82.22024 10553 ft 399 kts 189°
2026-04-21 23:48 28.90566 -82.22550 9803 ft 394 kts 189°
2026-04-21 23:48 28.87895 -82.23084 9307 ft 392 kts 189°
2026-04-21 23:48 28.85213 -82.23605 9115 ft 388 kts 188°
2026-04-21 23:49 28.82556 -82.24119 9035 ft 389 kts 188°
2026-04-21 23:49 28.79876 -82.24651 9017 ft 393 kts 188°
2026-04-21 23:49 28.77207 -82.25174 9006 ft 387 kts 188°
2026-04-21 23:49 28.74541 -82.25691 8981 ft 388 kts 184°
2026-04-21 23:50 28.71848 -82.25704 8970 ft 386 kts 172°
2026-04-21 23:50 28.69216 -82.25176 8971 ft 387 kts 167°
2026-04-21 23:50 28.66582 -82.24594 8993 ft 388 kts 167°
2026-04-21 23:50 28.63949 -82.24013 8993 ft 383 kts 167°
2026-04-21 23:51 28.61346 -82.23330 8961 ft 381 kts 159°
2026-04-21 23:51 28.58881 -82.22191 8963 ft 381 kts 156°
2026-04-21 23:51 28.56416 -82.21021 8997 ft 385 kts 155°
2026-04-21 23:51 28.53956 -82.19853 8999 ft 383 kts 155°
2026-04-21 23:52 28.51501 -82.18690 9003 ft 384 kts 155°
2026-04-21 23:52 28.49044 -82.17526 9010 ft 387 kts 156°
2026-04-21 23:52 28.46584 -82.16362 9008 ft 385 kts 155°
2026-04-21 23:52 28.44112 -82.15193 9017 ft 383 kts 156°
2026-04-21 23:53 28.41641 -82.14023 9047 ft 383 kts 156°
2026-04-21 23:53 28.39175 -82.12857 9063 ft 384 kts 155°
2026-04-21 23:53 28.36700 -82.11685 9056 ft 387 kts 155°
2026-04-21 23:53 28.34218 -82.10511 9057 ft 389 kts 156°
2026-04-21 23:54 28.31746 -82.09340 9055 ft 386 kts 155°
2026-04-21 23:54 28.29276 -82.08169 8823 ft 385 kts 156°
2026-04-21 23:54 28.26831 -82.07015 8097 ft 375 kts 156°
2026-04-21 23:54 28.24438 -82.05894 7389 ft 370 kts 155°
2026-04-21 23:55 28.22086 -82.04797 6679 ft 362 kts 154°
2026-04-21 23:55 28.19770 -82.03721 5915 ft 356 kts 154°
2026-04-21 23:55 28.17503 -82.02684 5172 ft 348 kts 156°
2026-04-21 23:55 28.15170 -82.01940 4405 ft 348 kts 165°
2026-04-21 23:56 28.12780 -82.01539 3723 ft 345 kts 171°
2026-04-21 23:56 28.10370 -82.01403 3318 ft 348 kts 175°
2026-04-21 23:56 28.07938 -82.01524 3163 ft 350 kts 180°
2026-04-21 23:56 28.05509 -82.01714 3111 ft 355 kts 180°
2026-04-21 23:57 28.03060 -82.01903 3113 ft 347 kts 180°
2026-04-21 23:57 28.00636 -82.02093 3079 ft 348 kts 180°
2026-04-21 23:57 27.98209 -82.02318 3089 ft 349 kts 181°
2026-04-21 23:57 27.95788 -82.02771 2997 ft 369 kts 231°
2026-04-21 23:58 27.95458 -82.05267 2692 ft 265 kts 268°
2026-04-21 23:58 27.95475 -82.07147 2527 ft 238 kts 291°
2026-04-21 23:58 27.96584 -82.08046 1949 ft 199 kts
2026-04-21 23:58 27.97946 -82.07890 1685 ft 199 kts 34°
2026-04-21 23:59 27.98640 -82.06872 1077 ft 155 kts 75°
2026-04-21 23:59 27.98852 -82.05621 715 ft 161 kts 84°
2026-04-21 23:59 27.98921 -82.04353 364 ft 158 kts 90°
2026-04-21 23:59 27.98925 -82.03271 150 ft 135 kts 91°
2026-04-22 00:00 27.98923 -82.02451 141 ft 76 kts 90°
2026-04-22 00:00 27.98922 -82.01962 143 ft 53 kts 90°
2026-04-22 00:00 27.98919 -82.01566 142 ft 49 kts 91°
2026-04-22 00:00 27.98920 -82.01200 143 ft 45 kts 90°
2026-04-22 00:01 27.98921 -82.00896 145 ft 30 kts 90°
2026-04-22 00:01 27.98873 -82.00760 144 ft 14 kts 178°
2026-04-22 00:01 27.98838 -82.00760 143 ft 0 kts 180°
2026-04-22 00:02 27.98786 -82.00757 143 ft 15 kts 176°
2026-04-22 00:02 27.98666 -82.00760 143 ft 13 kts 226°
2026-04-22 00:03 27.98651 -82.00883 142 ft 15 kts 258°
2026-04-22 00:03 27.98610 -82.01010 143 ft 21 kts 248°
2026-04-22 00:03 27.98587 -82.01075 142 ft 9 kts 249°
2026-04-22 00:03 27.98580 -82.01093 143 ft 0 kts 230°
2026-04-22 00:04 27.98579 -82.01095 143 ft 1 kts 246°
2026-04-22 00:04 27.98544 -82.01213 144 ft 19 kts 249°
2026-04-22 00:05 27.98503 -82.01327 146 ft 12 kts 297°
2026-04-22 00:05 27.98517 -82.01442 147 ft 17 kts 269°
2026-04-22 00:05 27.98464 -82.01561 146 ft 21 kts 232°
2026-04-22 00:05 27.98377 -82.01689 147 ft 20 kts 233°
2026-04-22 00:06 27.98326 -82.01811 146 ft 20 kts 268°
2026-04-22 00:06 27.98322 -82.01961 148 ft 19 kts 268°
2026-04-22 00:06 27.98402 -82.01953 148 ft 21 kts 45°
2026-04-22 00:06 27.98503 -82.01835 151 ft 20 kts 47°
2026-04-22 00:07 27.98527 -82.01823 151 ft 1 kts 321°
2026-04-22 00:07 27.98528 -82.01825 151 ft 0 kts 314°
2026-04-22 00:08 27.98525 -82.01821 151 ft 0 kts 314°
2026-04-22 00:09 27.98520 -82.01815 151 ft 3 kts 314°
2026-04-22 00:09 27.98519 -82.01814 151 ft 0 kts 314°